| time (UTC) | temp C | wind direction | speed KPH | gust KPH | rain 1hr cm | rain 24hr cm | rain mn cm | humidity % | barometer mb |
| 20260504203903 | 13 | 16 | 6.4 | 9.7 | 0.18 | 0.00 | 0.00 | 97 | 1013.1 |
| 20260504202402 | 13 | 13 | 3.2 | 6.4 | 0.43 | 0.00 | 0.00 | 98 | 1013.0 |
| 20260504200901 | 13 | 1 | 3.2 | 6.4 | 0.23 | 0.00 | 0.00 | 98 | 1013.0 |
| 20260504195402 | 13 | 19 | 3.2 | 6.4 | 0.46 | 0.00 | 0.00 | 99 | 1013.0 |
| 20260504193900 | 13 | 66 | 3.2 | 6.4 | 1.68 | 0.00 | 0.00 | 95 | 1013.0 |
| 20260504192400 | 15 | 38 | 3.2 | 12.9 | 0.08 | 0.00 | 0.00 | 93 | 1013.0 |
| 20260504190901 | 15 | 26 | 9.7 | 20.9 | 0.00 | 0.00 | 0.00 | 90 | 1012.5 |
| 20260504185400 | 15 | 33 | 9.7 | 20.9 | 0.00 | 0.00 | 0.00 | 88 | 1012.4 |
| 20260504183900 | 15 | 9 | 9.7 | 20.9 | 0.00 | 0.00 | 0.00 | 87 | 1012.4 |
| 20260504182359 | 15 | 9 | 12.9 | 20.9 | 0.00 | 0.00 | 0.00 | 85 | 1012.4 |
| 20260504180858 | 15 | 9 | 6.4 | 17.7 | 0.00 | 0.00 | 0.00 | 85 | 1012.3 |
| 20260504175357 | 15 | 28 | 12.9 | 17.7 | 0.00 | 0.00 | 0.00 | 84 | 1012.3 |
| 20260504173856 | 15 | 16 | 9.7 | 17.7 | 0.00 | 0.00 | 0.00 | 83 | 1012.2 |
| 20260504172355 | 16 | 7 | 9.7 | 17.7 | 0.00 | 0.00 | 0.00 | 81 | 1012.2 |
| 20260504170855 | 16 | 350 | 12.9 | 17.7 | 0.00 | 0.00 | 0.00 | 79 | 1012.2 |
| 20260504150851 | 17 | 355 | 6.4 | 9.7 | 0.00 | 0.00 | 0.00 | 68 | 1012.3 |
| 20260504140850 | 18 | 98 | 3.2 | 3.2 | 0.00 | 0.00 | 0.00 | 67 | 1012.7 |
| 20260504080841 | 15 | 174 | 3.2 | 9.7 | 0.00 | 0.00 | 0.00 | 88 | 1013.2 |
| 20260504045332 | 10 | 254 | 0.0 | 0.0 | 0.00 | 0.00 | 0.00 | 99 | 1012.3 |
| 20260504043832 | 10 | 254 | 0.0 | 0.0 | 0.00 | 0.00 | 0.00 | 99 | 1012.4 |
| 20260504042331 | 10 | 197 | 3.2 | 6.4 | 0.00 | 0.00 | 0.00 | 99 | 1012.4 |
| 20260504040832 | 10 | 182 | 3.2 | 6.4 | 0.00 | 0.00 | 0.00 | 99 | 1012.4 |
| 20260504035331 | 10 | 186 | 3.2 | 6.4 | 0.00 | 0.00 | 0.00 | 99 | 1012.3 |
| 20260504033830 | 10 | 183 | 6.4 | 6.4 | 0.00 | 0.00 | 0.00 | 99 | 1012.4 |
| 20260504032330 | 10 | 177 | 3.2 | 6.4 | 0.00 | 0.00 | 0.00 | 99 | 1012.2 |
| 20260504030830 | 10 | 194 | 3.2 | 3.2 | 0.00 | 0.00 | 0.00 | 99 | 1012.1 |
| 20260504025330 | 10 | 199 | 3.2 | 3.2 | 0.00 | 0.00 | 0.00 | 98 | 1012.0 |
| 20260504023830 | 10 | 203 | 3.2 | 3.2 | 0.00 | 0.00 | 0.00 | 99 | 1011.9 |
| 20260504022330 | 10 | 195 | 0.0 | 3.2 | 0.00 | 0.00 | 0.00 | 98 | 1011.8 |
| 20260504020829 | 10 | 196 | 0.0 | 3.2 | 0.00 | 0.00 | 0.00 | 99 | 1011.8 |
| 20260504015329 | 11 | 211 | 3.2 | 6.4 | 0.00 | 0.00 | 0.00 | 99 | 1011.8 |
| 20260504013829 | 11 | 217 | 3.2 | 6.4 | 0.00 | 0.00 | 0.00 | 99 | 1011.7 |
| 20260504012329 | 11 | 229 | 3.2 | 9.7 | 0.00 | 0.00 | 0.00 | 99 | 1011.7 |
| 20260504010828 | 11 | 238 | 6.4 | 12.9 | 0.00 | 0.00 | 0.00 | 98 | 1011.8 |
| 20260504005328 | 12 | 238 | 9.7 | 17.7 | 0.00 | 0.00 | 0.00 | 97 | 1011.8 |
| 20260504003827 | 12 | 238 | 9.7 | 17.7 | 0.00 | 0.00 | 0.00 | 97 | 1011.8 |
| 20260504002327 | 12 | 217 | 9.7 | 12.9 | 0.00 | 0.00 | 0.00 | 98 | 1011.7 |
| 20260504000827 | 12 | 220 | 6.4 | 9.7 | 0.00 | 0.00 | 0.00 | 98 | 1011.7 |
| 20260503235326 | 12 | 218 | 6.4 | 9.7 | 0.00 | 0.00 | 0.00 | 99 | 1011.8 |
| 20260503233826 | 11 | 205 | 6.4 | 9.7 | 0.00 | 0.00 | 0.00 | 99 | 1011.7 |
| 20260503232325 | 11 | 209 | 6.4 | 9.7 | 0.00 | 0.00 | 0.00 | 98 | 1011.5 |
| 20260503230825 | 12 | 208 | 6.4 | 9.7 | 0.00 | 0.00 | 0.00 | 97 | 1011.4 |
| 20260503225323 | 12 | 207 | 6.4 | 9.7 | 0.00 | 0.00 | 0.00 | 97 | 1011.4 |
| 20260503223823 | 12 | 197 | 6.4 | 9.7 | 0.00 | 0.00 | 0.00 | 97 | 1011.4 |
| 20260503222323 | 12 | 196 | 6.4 | 9.7 | 0.00 | 0.00 | 0.00 | 97 | 1011.4 |
| 20260503220823 | 13 | 192 | 3.2 | 6.4 | 0.00 | 0.00 | 0.00 | 97 | 1011.4 |
| 20260503215322 | 12 | 194 | 3.2 | 6.4 | 0.00 | 0.00 | 0.00 | 97 | 1011.4 |
| 20260503213822 | 12 | 194 | 3.2 | 9.7 | 0.00 | 0.00 | 0.00 | 97 | 1011.3 |
| 20260503212322 | 12 | 195 | 6.4 | 9.7 | 0.00 | 0.00 | 0.00 | 97 | 1011.3 |
| 20260503210822 | 13 | 198 | 6.4 | 9.7 | 0.00 | 0.00 | 0.00 | 96 | 1011.4 |
| 20260503205320 | 13 | 198 | 6.4 | 9.7 | 0.00 | 0.00 | 0.00 | 96 | 1011.4 |